To NAV CANADA Home Page Login to a new session Search on AWWS site Feedback and Comments Disclaimer Vers la page française équivalente Tips FAQ What's new on the site To the Forecasts and Observations / NOTAM section To "File a Flight Plan" website Publications and other links Update of the User's profile FIC Telephone Numbers My Weather Data Folder Route Weather Data Regional Weather Data Local Weather Data To the Forecasts and Observations / NOTAM section
Request Generated 10/17/2017 at 01:56:08 UTC . Weather information available at that time is displayed.

METAR/TAF

NAUJAAT/NU    

LWIS CYUT 170100Z AUTO 35014G20KT M11/M14 A2975=
LWIS CYUT 170000Z AUTO 36016KT M10/M13 A2974=
LWIS CYUT 162300Z AUTO 36016KT M10/M12 A2973=

*** REMARK        : Forecast period has ended; this was the last TAF issued
*** REMARQUE : La période de prévision est échue; ceci était le dernier TAF qui a été émis
TAF CYUT 161838Z 1619/1622 35015KT P6SM -SN OVC030 TEMPO 1619/1622
4SM -SN BR FEW008 OVC020
RMK NXT FCST WILL BE ISSUED AT 171345Z=
Your time UTC time
Weather data provided by Environment Canada and NAV CANADA